{"data":{"norad_id":64819,"epoch":"2026-09-21T21:15:14.607072Z","epoch_age_seconds":54758,"freshness":"FRESH","line1":"1 64819U 25151D   26264.88558573  .00001768  00000+0  26089-3 0  9990","line2":"2 64819  51.8981 135.4411 0001096  93.6467 266.4621 14.79929200 64608","mean_motion":14.799292,"eccentricity":0.0001096,"inclination_deg":51.8981,"raan_deg":135.4411,"arg_perigee_deg":93.6467,"mean_anomaly_deg":266.4621,"bstar":0.00026089,"rev_number":6460,"period_min":97.301952012299,"perigee_km":628.77958262413,"apogee_km":630.3156670939,"semimajor_km":7007.684624859,"source":"CELESTRAK","updated_at":"2026-09-22T09:00:29.974112Z"}}